Voltar ao catálogo

CZ-6A DEB

AtivoPO
NORAD 60796·DEBRIS·🇨🇳 China

Lançado Aug 6, 2024 de Taiyuan Satellite Launch Center

Loading…

Próximas Passagens (próximas 24 horas)

TLE

AtualizadoSource: Space-Track

Época: Sep 14, 2026, 23:30 UTC

1 60796U 24140FX  26257.97961436  .00000186  00000-0  10210-3 0  9998
2 60796  88.9542 263.0341 0112546 321.0306  38.2802 14.04749198107243

Acompanhe CZ-6A DEB em tempo real com AllMySat

Download on the App Store